RYR2NQ EGKK-EIDW

Flight info

Callsign RYR2NQ
Flight time 1h 11m
Altitude 30000
Route IMVUR N63 VOUGA N14 BIBPE DCT OKTAD DCT MEDOG DCT KRAGY DCT PEMOB M17 VATRY VATRY4L
Aircraft B738/M-SDE2E3FGHIRWXY/LB1

Departure

Time 2026-05-06 14:56
Airport London Gatwick Airport (EGKK)

Arrival

Time 2026-05-06 16:07
Airport Dublin Airport (EIDW)
Time Latitude Longitude Altitude Speed Heading
2026-05-06 14:09 51.15486 -0.16893 207 ft 0 kts 349°
2026-05-06 14:39 51.15475 -0.16890 202 ft 3 kts 344°
2026-05-06 14:39 51.15457 -0.16879 206 ft 3 kts 318°
2026-05-06 14:40 51.15448 -0.16858 215 ft 3 kts 270°
2026-05-06 14:40 51.15448 -0.16846 211 ft 0 kts 257°
2026-05-06 14:46 51.15444 -0.16873 210 ft 6 kts 256°
2026-05-06 14:46 51.15434 -0.16944 202 ft 7 kts 257°
2026-05-06 14:46 51.15424 -0.17013 204 ft 6 kts 258°
2026-05-06 14:46 51.15413 -0.17089 207 ft 8 kts 257°
2026-05-06 14:47 51.15394 -0.17173 206 ft 9 kts 248°
2026-05-06 14:47 51.15373 -0.17268 212 ft 10 kts 255°
2026-05-06 14:47 51.15336 -0.17363 209 ft 12 kts 207°
2026-05-06 14:47 51.15297 -0.17475 209 ft 13 kts 259°
2026-05-06 14:48 51.15276 -0.17633 205 ft 16 kts 258°
2026-05-06 14:48 51.15250 -0.17829 206 ft 19 kts 258°
2026-05-06 14:48 51.15221 -0.18034 208 ft 19 kts 257°
2026-05-06 14:48 51.15194 -0.18229 206 ft 18 kts 257°
2026-05-06 14:49 51.15171 -0.18421 211 ft 17 kts 260°
2026-05-06 14:49 51.15147 -0.18606 204 ft 17 kts 258°
2026-05-06 14:49 51.15123 -0.18784 207 ft 16 kts 258°
2026-05-06 14:49 51.15100 -0.18955 208 ft 15 kts 257°
2026-05-06 14:50 51.15077 -0.19119 204 ft 15 kts 258°
2026-05-06 14:50 51.15056 -0.19277 212 ft 14 kts 258°
2026-05-06 14:50 51.15035 -0.19428 210 ft 14 kts 257°
2026-05-06 14:50 51.15013 -0.19589 210 ft 16 kts 258°
2026-05-06 14:51 51.14989 -0.19777 203 ft 19 kts 257°
2026-05-06 14:51 51.14957 -0.19996 202 ft 22 kts 257°
2026-05-06 14:51 51.14930 -0.20194 202 ft 17 kts 258°
2026-05-06 14:51 51.14905 -0.20372 201 ft 16 kts 257°
2026-05-06 14:52 51.14881 -0.20544 212 ft 16 kts 257°
2026-05-06 14:52 51.14840 -0.20639 204 ft 10 kts 212°
2026-05-06 14:52 51.14780 -0.20691 208 ft 10 kts 219°
2026-05-06 14:52 51.14756 -0.20794 203 ft 10 kts 257°
2026-05-06 14:53 51.14739 -0.20915 209 ft 8 kts 257°
2026-05-06 14:53 51.14736 -0.20929 205 ft 2 kts 254°
2026-05-06 14:53 51.14723 -0.20994 211 ft 10 kts 253°
2026-05-06 14:53 51.14705 -0.21116 200 ft 13 kts 257°
2026-05-06 14:54 51.14683 -0.21270 210 ft 13 kts 257°
2026-05-06 14:54 51.14665 -0.21323 206 ft 6 kts 215°
2026-05-06 14:54 51.14623 -0.21326 203 ft 6 kts 168°
2026-05-06 14:54 51.14581 -0.21309 202 ft 6 kts 161°
2026-05-06 14:55 51.14538 -0.21262 208 ft 10 kts 132°
2026-05-06 14:55 51.14519 -0.21130 208 ft 13 kts 78°
2026-05-06 14:55 51.14559 -0.20850 209 ft 57 kts 77°
2026-05-06 14:55 51.14695 -0.19861 206 ft 124 kts 77°
2026-05-06 14:56 51.14841 -0.18840 243 ft 158 kts 73°
2026-05-06 14:56 51.15077 -0.17019 687 ft 182 kts 75°
2026-05-06 14:56 51.15340 -0.14892 1185 ft 204 kts 76°
2026-05-06 14:56 51.15618 -0.12582 1667 ft 220 kts 76°
2026-05-06 14:57 51.15901 -0.10122 2175 ft 232 kts 77°
2026-05-06 14:57 51.16629 -0.06812 2907 ft 236 kts 50°
2026-05-06 14:57 51.17786 -0.05234 3351 ft 212 kts 25°
2026-05-06 14:57 51.18713 -0.04694 3491 ft 209 kts 10°
2026-05-06 14:58 51.20170 -0.04742 3876 ft 214 kts 345°
2026-05-06 14:58 51.21482 -0.05934 4073 ft 223 kts 318°
2026-05-06 14:58 51.22370 -0.07903 4330 ft 225 kts 297°
2026-05-06 14:58 51.22790 -0.10446 4644 ft 251 kts 278°
2026-05-06 14:59 51.22678 -0.13303 5164 ft 264 kts 263°
2026-05-06 14:59 51.22298 -0.16204 5628 ft 270 kts 259°
2026-05-06 14:59 51.21830 -0.19104 5923 ft 269 kts 258°
2026-05-06 14:59 51.21398 -0.21982 6196 ft 266 kts 261°
2026-05-06 15:00 51.21039 -0.24854 6528 ft 262 kts 262°
2026-05-06 15:00 51.20693 -0.27726 6960 ft 267 kts 262°
2026-05-06 15:00 51.20315 -0.30648 7384 ft 272 kts 261°
2026-05-06 15:00 51.19932 -0.33585 8024 ft 268 kts 261°
2026-05-06 15:01 51.19600 -0.36431 9230 ft 253 kts 264°
2026-05-06 15:01 51.19329 -0.39137 10131 ft 251 kts 263°
2026-05-06 15:01 51.18996 -0.41918 10651 ft 262 kts 261°
2026-05-06 15:01 51.18614 -0.44870 10931 ft 281 kts 260°
2026-05-06 15:02 51.18132 -0.47960 11365 ft 291 kts 257°
2026-05-06 15:02 51.17594 -0.51056 11926 ft 289 kts 256°
2026-05-06 15:02 51.17034 -0.54148 12410 ft 294 kts 255°
2026-05-06 15:02 51.16334 -0.57312 12566 ft 313 kts 251°
2026-05-06 15:03 51.15496 -0.60651 12789 ft 335 kts 249°
2026-05-06 15:03 51.14580 -0.64133 13368 ft 344 kts 249°
2026-05-06 15:03 51.13653 -0.67602 14108 ft 347 kts 249°
2026-05-06 15:03 51.12705 -0.71135 14672 ft 346 kts 248°
2026-05-06 15:04 51.11756 -0.74668 14963 ft 348 kts 248°
2026-05-06 15:04 51.10800 -0.78233 14975 ft 352 kts 249°
2026-05-06 15:04 51.09842 -0.81803 14979 ft 351 kts 249°
2026-05-06 15:04 51.08884 -0.85366 14982 ft 349 kts 248°
2026-05-06 15:05 51.07960 -0.88928 14978 ft 348 kts 253°
2026-05-06 15:05 51.07675 -0.92714 14989 ft 346 kts 276°
2026-05-06 15:05 51.08292 -0.96384 14997 ft 345 kts 296°
2026-05-06 15:05 51.09615 -0.99518 15225 ft 350 kts 312°
2026-05-06 15:06 51.11520 -1.01956 15953 ft 354 kts 326°
2026-05-06 15:06 51.13634 -1.04023 16634 ft 359 kts 328°
2026-05-06 15:06 51.15804 -1.06039 17380 ft 362 kts 328°
2026-05-06 15:06 51.17989 -1.08063 18099 ft 366 kts 328°
2026-05-06 15:07 51.20188 -1.10125 18754 ft 368 kts 328°
2026-05-06 15:07 51.22403 -1.12229 19299 ft 374 kts 327°
2026-05-06 15:07 51.24643 -1.14376 19875 ft 377 kts 327°
2026-05-06 15:07 51.26903 -1.16554 20455 ft 381 kts 327°
2026-05-06 15:08 51.29177 -1.18749 21084 ft 383 kts 327°
2026-05-06 15:08 51.31440 -1.20937 21652 ft 387 kts 327°
2026-05-06 15:08 51.33764 -1.23134 22233 ft 390 kts 330°
2026-05-06 15:08 51.36266 -1.24900 22761 ft 396 kts 337°
2026-05-06 15:09 51.38874 -1.26424 23303 ft 401 kts 338°
2026-05-06 15:09 51.41505 -1.27935 23790 ft 404 kts 338°
2026-05-06 15:09 51.44155 -1.29480 24262 ft 406 kts 338°
2026-05-06 15:09 51.46807 -1.31061 24752 ft 408 kts 337°
2026-05-06 15:10 51.49461 -1.32665 25366 ft 406 kts 337°
2026-05-06 15:10 51.52092 -1.34261 26008 ft 403 kts 337°
2026-05-06 15:10 51.54672 -1.35829 26619 ft 401 kts 337°
2026-05-06 15:10 51.57285 -1.37425 27172 ft 401 kts 335°
2026-05-06 15:11 51.59711 -1.39582 27648 ft 398 kts 320°
2026-05-06 15:11 51.61689 -1.42653 28244 ft 393 kts 307°
2026-05-06 15:11 51.63160 -1.46327 28867 ft 389 kts 296°
2026-05-06 15:11 51.64402 -1.50171 29513 ft 386 kts 295°
2026-05-06 15:12 51.65631 -1.54021 29995 ft 388 kts 296°
2026-05-06 15:12 51.68172 -1.61776 29989 ft 391 kts 296°
2026-05-06 15:13 51.70363 -1.69593 30001 ft 384 kts 284°
2026-05-06 15:13 51.71165 -1.78102 30010 ft 386 kts 275°
2026-05-06 15:14 51.71797 -1.86732 29998 ft 389 kts 280°
2026-05-06 15:14 51.73025 -1.95235 30025 ft 390 kts 283°
2026-05-06 15:15 51.74348 -2.03707 30012 ft 388 kts 283°
2026-05-06 15:15 51.75608 -2.12045 30009 ft 382 kts 282°
2026-05-06 15:16 51.76830 -2.20333 30016 ft 378 kts 282°
2026-05-06 15:16 51.78034 -2.28583 30027 ft 378 kts 282°
2026-05-06 15:17 51.79235 -2.36867 30029 ft 380 kts 282°
2026-05-06 15:17 51.80431 -2.45146 30016 ft 382 kts 282°
2026-05-06 15:18 51.81632 -2.53504 29999 ft 382 kts 282°
2026-05-06 15:18 51.82795 -2.61877 29998 ft 381 kts 281°
2026-05-06 15:19 51.83923 -2.70249 29989 ft 380 kts 281°
2026-05-06 15:19 51.85043 -2.78596 29991 ft 379 kts 281°
2026-05-06 15:20 51.86150 -2.86866 30045 ft 378 kts 281°
2026-05-06 15:20 51.87258 -2.95180 30042 ft 378 kts 281°
2026-05-06 15:21 51.88359 -3.03491 30040 ft 378 kts 281°
2026-05-06 15:21 51.89456 -3.11814 30031 ft 378 kts 281°
2026-05-06 15:22 51.90547 -3.20139 30028 ft 378 kts 281°
2026-05-06 15:22 51.91626 -3.28425 30015 ft 379 kts 281°
2026-05-06 15:23 51.92707 -3.36773 29993 ft 379 kts 281°
2026-05-06 15:23 51.93783 -3.45131 30000 ft 379 kts 281°
2026-05-06 15:24 51.94854 -3.53495 29987 ft 379 kts 281°
2026-05-06 15:24 51.95917 -3.61861 30005 ft 379 kts 281°
2026-05-06 15:25 51.96966 -3.70171 29987 ft 379 kts 281°
2026-05-06 15:25 51.98015 -3.78530 29997 ft 378 kts 281°
2026-05-06 15:26 51.99059 -3.86893 30011 ft 378 kts 281°
2026-05-06 15:26 52.00094 -3.95234 29997 ft 377 kts 281°
2026-05-06 15:27 52.01005 -4.02623 29991 ft 375 kts 281°
2026-05-06 15:27 52.02022 -4.10916 29994 ft 374 kts 281°
2026-05-06 15:28 52.03029 -4.19177 29993 ft 373 kts 280°
2026-05-06 15:28 52.04019 -4.27344 29978 ft 360 kts 280°
2026-05-06 15:28 52.04496 -4.31305 29687 ft 354 kts 280°
2026-05-06 15:29 52.04964 -4.35190 29440 ft 349 kts 280°
2026-05-06 15:29 52.05419 -4.38990 29133 ft 345 kts 280°
2026-05-06 15:29 52.05874 -4.42800 28760 ft 342 kts 281°
2026-05-06 15:29 52.06324 -4.46581 28429 ft 340 kts 281°
2026-05-06 15:30 52.06771 -4.50339 28073 ft 337 kts 281°
2026-05-06 15:30 52.07120 -4.53282 27798 ft 336 kts 281°
2026-05-06 15:30 52.07559 -4.56995 27451 ft 334 kts 281°
2026-05-06 15:31 52.07994 -4.60689 27115 ft 332 kts 281°
2026-05-06 15:31 52.08421 -4.64319 26779 ft 331 kts 281°
2026-05-06 15:31 52.08850 -4.67979 26449 ft 329 kts 281°
2026-05-06 15:32 52.09700 -4.75263 25787 ft 326 kts 281°
2026-05-06 15:32 52.10121 -4.78883 25453 ft 325 kts 281°
2026-05-06 15:32 52.10539 -4.82489 25128 ft 324 kts 281°
2026-05-06 15:32 52.10956 -4.86089 24799 ft 323 kts 281°
2026-05-06 15:33 52.11370 -4.89677 24473 ft 322 kts 281°
2026-05-06 15:33 52.11781 -4.93258 24153 ft 322 kts 281°
2026-05-06 15:33 52.12191 -4.96835 23826 ft 321 kts 281°
2026-05-06 15:33 52.12593 -5.00357 23496 ft 321 kts 281°
2026-05-06 15:34 52.13000 -5.03922 23120 ft 320 kts 281°
2026-05-06 15:34 52.13404 -5.07478 22772 ft 319 kts 281°
2026-05-06 15:34 52.13805 -5.11018 22438 ft 317 kts 281°
2026-05-06 15:34 52.14485 -5.14402 22102 ft 316 kts 301°
2026-05-06 15:35 52.15877 -5.17126 21826 ft 314 kts 319°
2026-05-06 15:35 52.17725 -5.19017 21521 ft 314 kts 330°
2026-05-06 15:35 52.19677 -5.20618 21189 ft 314 kts 332°
2026-05-06 15:35 52.21635 -5.22177 20866 ft 313 kts 332°
2026-05-06 15:36 52.23563 -5.23714 20554 ft 312 kts 332°
2026-05-06 15:36 52.25507 -5.25278 20235 ft 311 kts 332°
2026-05-06 15:36 52.27442 -5.26850 19928 ft 310 kts 331°
2026-05-06 15:36 52.29374 -5.28427 19618 ft 310 kts 331°
2026-05-06 15:37 52.31298 -5.30005 19306 ft 309 kts 331°
2026-05-06 15:37 52.33222 -5.31588 19000 ft 309 kts 331°
2026-05-06 15:37 52.35140 -5.33168 18686 ft 309 kts 331°
2026-05-06 15:37 52.37034 -5.34730 18381 ft 309 kts 331°
2026-05-06 15:38 52.38950 -5.36312 18036 ft 309 kts 331°
2026-05-06 15:38 52.40868 -5.37896 17696 ft 308 kts 331°
2026-05-06 15:38 52.42778 -5.39477 17371 ft 307 kts 331°
2026-05-06 15:38 52.44681 -5.41053 17043 ft 306 kts 331°
2026-05-06 15:39 52.46579 -5.42627 16736 ft 305 kts 331°
2026-05-06 15:39 52.48471 -5.44197 16425 ft 304 kts 331°
2026-05-06 15:39 52.50353 -5.45760 16119 ft 303 kts 331°
2026-05-06 15:39 52.52230 -5.47321 15816 ft 302 kts 331°
2026-05-06 15:40 52.54078 -5.48858 15511 ft 301 kts 331°
2026-05-06 15:40 52.55958 -5.50369 15205 ft 301 kts 335°
2026-05-06 15:40 52.57932 -5.51528 14896 ft 301 kts 340°
2026-05-06 15:40 52.59937 -5.52531 14606 ft 301 kts 341°
2026-05-06 15:41 52.61947 -5.53506 14302 ft 301 kts 341°
2026-05-06 15:41 52.63952 -5.54488 14003 ft 301 kts 341°
2026-05-06 15:41 52.65949 -5.55482 13683 ft 300 kts 341°
2026-05-06 15:41 52.67950 -5.56491 13350 ft 300 kts 340°
2026-05-06 15:42 52.69940 -5.57505 13018 ft 299 kts 340°
2026-05-06 15:42 52.71923 -5.58522 12713 ft 298 kts 340°
2026-05-06 15:42 52.73873 -5.59527 12410 ft 297 kts 340°
2026-05-06 15:42 52.75840 -5.60544 12106 ft 296 kts 340°
2026-05-06 15:43 52.77801 -5.61561 11811 ft 295 kts 340°
2026-05-06 15:43 52.79757 -5.62577 11502 ft 294 kts 340°
2026-05-06 15:43 52.81710 -5.63593 11203 ft 294 kts 341°
2026-05-06 15:43 52.83656 -5.64607 10898 ft 293 kts 341°
2026-05-06 15:44 52.85599 -5.65621 10593 ft 293 kts 341°
2026-05-06 15:44 52.87539 -5.66633 10301 ft 292 kts 341°
2026-05-06 15:44 52.89446 -5.67629 10105 ft 288 kts 340°
2026-05-06 15:44 52.91342 -5.68620 9890 ft 285 kts 340°
2026-05-06 15:45 52.93234 -5.69611 9573 ft 285 kts 340°
2026-05-06 15:45 52.95119 -5.70599 9297 ft 283 kts 340°
2026-05-06 15:45 52.96991 -5.71582 9025 ft 281 kts 340°
2026-05-06 15:45 52.98853 -5.72559 8756 ft 280 kts 340°
2026-05-06 15:46 53.00701 -5.73530 8496 ft 278 kts 341°
2026-05-06 15:46 53.02538 -5.74497 8236 ft 276 kts 341°
2026-05-06 15:46 53.04364 -5.75458 7976 ft 275 kts 341°
2026-05-06 15:46 53.06159 -5.76403 7722 ft 273 kts 341°
2026-05-06 15:47 53.07958 -5.77352 7460 ft 269 kts 341°
2026-05-06 15:47 53.09717 -5.78280 7194 ft 261 kts 341°
2026-05-06 15:47 53.11431 -5.79182 6934 ft 255 kts 342°
2026-05-06 15:47 53.13169 -5.79437 6666 ft 252 kts 11°
2026-05-06 15:48 53.14711 -5.78191 6471 ft 246 kts 40°
2026-05-06 15:48 53.15782 -5.76037 6249 ft 239 kts 59°
2026-05-06 15:48 53.16596 -5.73666 6026 ft 233 kts 61°
2026-05-06 15:48 53.17377 -5.71300 5810 ft 233 kts 61°
2026-05-06 15:49 53.18153 -5.68972 5587 ft 233 kts 61°
2026-05-06 15:49 53.18945 -5.66622 5379 ft 233 kts 60°
2026-05-06 15:49 53.19757 -5.64289 5155 ft 233 kts 54°
2026-05-06 15:49 53.20955 -5.62513 4940 ft 231 kts 33°
2026-05-06 15:50 53.22269 -5.60988 4729 ft 230 kts 35°
2026-05-06 15:50 53.23566 -5.59421 4495 ft 230 kts 36°
2026-05-06 15:50 53.24856 -5.57841 4279 ft 230 kts 36°
2026-05-06 15:50 53.26141 -5.56258 4064 ft 229 kts 36°
2026-05-06 15:51 53.27405 -5.54697 3859 ft 229 kts 37°
2026-05-06 15:51 53.28673 -5.53144 3736 ft 224 kts 33°
2026-05-06 15:51 53.30111 -5.52230 3593 ft 224 kts
2026-05-06 15:51 53.31650 -5.51736 3522 ft 227 kts 12°
2026-05-06 15:52 53.33206 -5.51178 3449 ft 230 kts 12°
2026-05-06 15:52 53.34760 -5.50606 3360 ft 227 kts 12°
2026-05-06 15:52 53.36291 -5.50038 3254 ft 224 kts 12°
2026-05-06 15:52 53.37813 -5.49471 3174 ft 224 kts 13°
2026-05-06 15:53 53.39350 -5.48897 3062 ft 228 kts 12°
2026-05-06 15:53 53.40911 -5.48762 2993 ft 222 kts 348°
2026-05-06 15:53 53.42354 -5.49322 2983 ft 211 kts 347°
2026-05-06 15:53 53.43754 -5.49820 2964 ft 201 kts 347°
2026-05-06 15:54 53.45100 -5.50287 2971 ft 195 kts 348°
2026-05-06 15:54 53.46424 -5.50741 2990 ft 195 kts 348°
2026-05-06 15:54 53.47762 -5.51197 3002 ft 198 kts 348°
2026-05-06 15:54 53.49113 -5.51656 3030 ft 198 kts 348°
2026-05-06 15:55 53.50470 -5.52117 2993 ft 198 kts 348°
2026-05-06 15:55 53.51727 -5.52812 2961 ft 183 kts 323°
2026-05-06 15:55 53.52703 -5.54041 2998 ft 177 kts 322°
2026-05-06 15:55 53.53721 -5.55276 3025 ft 182 kts 323°
2026-05-06 15:56 53.54745 -5.56507 3008 ft 180 kts 323°
2026-05-06 15:56 53.55751 -5.57713 2994 ft 176 kts 323°
2026-05-06 15:56 53.56741 -5.58901 2984 ft 175 kts 323°
2026-05-06 15:56 53.57748 -5.60107 2986 ft 180 kts 323°
2026-05-06 15:57 53.58769 -5.61340 2989 ft 180 kts 320°
2026-05-06 15:57 53.59451 -5.63009 2979 ft 172 kts 277°
2026-05-06 15:57 53.59292 -5.64922 2993 ft 168 kts 240°
2026-05-06 15:57 53.58506 -5.66344 3008 ft 171 kts 218°
2026-05-06 15:58 53.57588 -5.67622 2992 ft 171 kts 218°
2026-05-06 15:58 53.56676 -5.68885 2975 ft 169 kts 218°
2026-05-06 15:58 53.55777 -5.70127 2980 ft 166 kts 218°
2026-05-06 15:58 53.54886 -5.71353 2973 ft 165 kts 218°
2026-05-06 15:59 53.53995 -5.72579 2993 ft 169 kts 218°
2026-05-06 15:59 53.53072 -5.73847 2995 ft 172 kts 218°
2026-05-06 15:59 53.52151 -5.75110 2980 ft 169 kts 218°
2026-05-06 15:59 53.51247 -5.76349 2971 ft 166 kts 218°
2026-05-06 16:00 53.50355 -5.77568 2982 ft 167 kts 218°
2026-05-06 16:00 53.49457 -5.78796 2997 ft 170 kts 218°
2026-05-06 16:00 53.48545 -5.80042 2982 ft 168 kts 218°
2026-05-06 16:00 53.47659 -5.81316 2971 ft 168 kts 224°
2026-05-06 16:01 53.46862 -5.82734 2972 ft 167 kts 226°
2026-05-06 16:01 53.46077 -5.84165 2974 ft 166 kts 226°
2026-05-06 16:01 53.45295 -5.85585 2977 ft 166 kts 226°
2026-05-06 16:01 53.44505 -5.87012 2985 ft 167 kts 226°
2026-05-06 16:02 53.43707 -5.88449 2987 ft 169 kts 225°
2026-05-06 16:02 53.42900 -5.89899 2986 ft 171 kts 225°
2026-05-06 16:02 53.42097 -5.91339 2985 ft 172 kts 225°
2026-05-06 16:02 53.41275 -5.92810 2975 ft 173 kts 225°
2026-05-06 16:03 53.40589 -5.94454 2947 ft 175 kts 254°
2026-05-06 16:03 53.40589 -5.96466 2984 ft 173 kts 271°
2026-05-06 16:03 53.40656 -5.98481 2976 ft 173 kts 271°
2026-05-06 16:03 53.40742 -6.00492 2977 ft 173 kts 272°
2026-05-06 16:04 53.40842 -6.02518 2890 ft 176 kts 272°
2026-05-06 16:04 53.40962 -6.04561 2631 ft 176 kts 274°
2026-05-06 16:04 53.41088 -6.06593 2332 ft 174 kts 274°
2026-05-06 16:04 53.41209 -6.08563 2080 ft 172 kts 274°
2026-05-06 16:05 53.41331 -6.10527 1809 ft 165 kts 274°
2026-05-06 16:05 53.41419 -6.12394 1537 ft 157 kts 272°
2026-05-06 16:05 53.41483 -6.14191 1310 ft 153 kts 272°
2026-05-06 16:05 53.41550 -6.15983 1114 ft 156 kts 272°
2026-05-06 16:06 53.41637 -6.17812 967 ft 158 kts 273°
2026-05-06 16:06 53.41738 -6.19649 821 ft 157 kts 274°
2026-05-06 16:06 53.41841 -6.21479 669 ft 160 kts 273°
2026-05-06 16:06 53.41945 -6.23317 462 ft 158 kts 272°
2026-05-06 16:07 53.42034 -6.25153 277 ft 153 kts 273°
2026-05-06 16:07 53.42122 -6.26803 233 ft 132 kts 275°
2026-05-06 16:07 53.42188 -6.28010 234 ft 75 kts 275°
2026-05-06 16:07 53.42210 -6.28436 237 ft 2 kts 275°
2026-05-06 16:08 53.42216 -6.28481 236 ft 0 kts 262°
2026-05-06 16:08 53.42213 -6.28485 236 ft 1 kts 222°
2026-05-06 16:08 53.42207 -6.28466 240 ft 4 kts 95°
2026-05-06 16:08 53.42205 -6.28373 236 ft 11 kts 92°
2026-05-06 16:09 53.42200 -6.28239 235 ft 12 kts 95°
2026-05-06 16:09 53.42193 -6.28090 234 ft 13 kts 95°
2026-05-06 16:09 53.42185 -6.27935 234 ft 13 kts 95°
2026-05-06 16:09 53.42176 -6.27777 232 ft 15 kts 95°
2026-05-06 16:10 53.42166 -6.27586 230 ft 19 kts 95°
2026-05-06 16:10 53.42154 -6.27361 231 ft 19 kts 95°
2026-05-06 16:10 53.42142 -6.27147 230 ft 14 kts 96°
2026-05-06 16:10 53.42184 -6.27060 230 ft 12 kts
2026-05-06 16:11 53.42268 -6.27047 227 ft 9 kts
2026-05-06 16:11 53.42304 -6.26982 224 ft 9 kts 82°
2026-05-06 16:11 53.42304 -6.26883 224 ft 8 kts 96°
2026-05-06 16:11 53.42297 -6.26789 224 ft 8 kts 95°
2026-05-06 16:12 53.42291 -6.26694 224 ft 8 kts 96°
2026-05-06 16:12 53.42285 -6.26595 224 ft 9 kts 96°
2026-05-06 16:12 53.42278 -6.26481 226 ft 12 kts 95°
2026-05-06 16:12 53.42269 -6.26312 224 ft 17 kts 95°
2026-05-06 16:13 53.42257 -6.26083 224 ft 22 kts 95°
2026-05-06 16:13 53.42242 -6.25812 224 ft 23 kts 95°
2026-05-06 16:13 53.42227 -6.25547 224 ft 22 kts 95°
2026-05-06 16:13 53.42215 -6.25331 224 ft 15 kts 95°
2026-05-06 16:14 53.42206 -6.25180 228 ft 13 kts 96°
2026-05-06 16:14 53.42219 -6.25038 226 ft 13 kts 59°
2026-05-06 16:14 53.42275 -6.24921 224 ft 13 kts 46°
2026-05-06 16:14 53.42337 -6.24814 224 ft 13 kts 46°
2026-05-06 16:15 53.42400 -6.24717 224 ft 12 kts 27°
2026-05-06 16:15 53.42476 -6.24668 224 ft 10 kts 20°
2026-05-06 16:15 53.42518 -6.24642 224 ft 5 kts 21°
2026-05-06 16:15 53.42549 -6.24623 225 ft 2 kts 20°
2026-05-06 16:16 53.42552 -6.24621 224 ft 0 kts 20°
2026-05-06 16:16 53.42553 -6.24620 224 ft 0 kts 20°